Washington, PA

12:47 PM EST on December 05, 2019 (GMT -0500)
Washington County

Weather History for KAFJ - October, 2019

Change the Weather History Date:

Saturday, October 12, 2019

  Actual Average Record
Temperature  
Mean Temperature 51 °F -  
Max Temperature 63 °F 61 °F 80 °F (2008)
Min Temperature 37 °F 40 °F 28 °F (1996)
Degree Days  
Heating Degree Days 14    
Growing Degree Days 1 (Base 50)    
Moisture  
Dew Point 46 °F    
Average Humidity 81    
Maximum Humidity 100    
Minimum Humidity 53    
Precipitation  
Precipitation 0.07 in - - ()
Sea Level Pressure  
Sea Level Pressure 30.06 in    
Wind  
Wind Speed 7 mph ()    
Max Wind Speed 16 mph    
Max Gust Speed 21 mph    
Visibility 9.3 miles    
Events Rain    
Averages and records for this station are not official NWS values.
T = Trace of Precipitation, MM = Missing Value Source: Averaged Metar Reports

Daily Weather History Graph

Daily Weather History Graph

Search for Another Location

Airport or City:

Astronomy

Oct. 12, 2019 Rise Set
Actual Time 7:28 AM EDT 6:46 PM EDT
Civil Twilight 7:01 AM EDT 7:13 PM EDT
Nautical Twilight 6:29 AM EDT 7:44 PM EDT
Astronomical Twilight 5:58 AM EDT 8:16 PM EDT
Moon 6:41 PM EDT (10/12) 6:03 AM EDT (10/12)
Length of Visible Light 12h 12m
Length of Day
11h 17m
Waxing Gibbous, 99% of the Moon is Illuminated
Oct 12
Waxing Gibbous
Oct 13
Full
Oct 21
Last Quarter
Oct 27
New
Nov 4
First Quarter

Hourly Weather History & Observations

Time (EDT) Temp. Windchill Dew Point Humidity Pressure Visibility Wind Dir Wind Speed Gust Speed Precip Events Conditions
12:56 AM 63.0 °F - 52.0 °F 67% 29.96 in 10.0 mi Calm Calm - N/A   Overcast
1:56 AM 63.0 °F - 50.0 °F 63% 29.94 in 10.0 mi South 3.5 mph - N/A   Overcast
2:56 AM 63.0 °F - 50.0 °F 63% 29.92 in 10.0 mi South 3.5 mph - N/A   Overcast
3:56 AM 62.1 °F - 50.0 °F 65% 29.91 in 10.0 mi South 6.9 mph - N/A   Overcast
4:56 AM 60.1 °F - 54.0 °F 80% 29.91 in 10.0 mi South 4.6 mph - 0.00 in Rain Light Rain
6:53 AM 60.8 °F - 57.2 °F 88% 29.96 in 10.0 mi West 5.8 mph - 0.00 in   Overcast
6:56 AM 61.0 °F - 57.9 °F 90% 29.95 in 10.0 mi West 6.9 mph - 0.00 in   Overcast
7:06 AM 62.6 °F - 57.2 °F 82% 29.97 in 10.0 mi WNW 15.0 mph - N/A   Overcast
7:18 AM 60.8 °F - 57.2 °F 88% 29.98 in 10.0 mi NW 12.7 mph 19.6 mph N/A   Overcast
7:56 AM 54.0 °F - 52.0 °F 93% 30.01 in 8.0 mi WNW 10.4 mph 20.7 mph 0.02 in Rain Light Rain
8:56 AM 51.1 °F - 50.0 °F 96% 30.06 in 9.0 mi NW 6.9 mph - 0.01 in Rain Light Rain
9:36 AM 51.8 °F - 50.0 °F 94% 30.07 in 2.5 mi West 9.2 mph - 0.02 in Rain Light Rain
9:43 AM 51.8 °F - 50.0 °F 94% 30.07 in 6.0 mi WNW 9.2 mph - 0.02 in Rain Light Rain
9:56 AM 51.1 °F - 50.0 °F 96% 30.07 in 4.0 mi WNW 9.2 mph - 0.03 in Rain Light Rain
10:56 AM 48.0 °F - 46.9 °F 96% 30.10 in 9.0 mi West 12.7 mph - 0.01 in   Overcast
11:04 AM 48.2 °F - 46.4 °F 93% 30.11 in 10.0 mi West 16.1 mph - N/A   Overcast
11:16 AM 48.2 °F - 46.4 °F 93% 30.11 in 10.0 mi West 13.8 mph - N/A   Overcast
11:56 AM 48.0 °F - 46.9 °F 96% 30.12 in 7.0 mi West 12.7 mph - N/A   Overcast
12:03 PM 46.4 °F 40.1 °F 46.4 °F 100% 30.12 in 10.0 mi West 15.0 mph - N/A   Overcast
12:15 PM 46.4 °F 39.8 °F 44.6 °F 93% 30.12 in 10.0 mi West 16.1 mph - N/A   Overcast
12:53 PM 48.2 °F - 42.8 °F 82% 30.13 in 10.0 mi WSW 10.4 mph - N/A   Mostly Cloudy
12:56 PM 48.9 °F - 44.1 °F 83% 30.13 in 10.0 mi West 12.7 mph - N/A   Mostly Cloudy
1:56 PM 53.1 °F - 41.0 °F 64% 30.11 in 10.0 mi West 12.7 mph - N/A   Mostly Cloudy
2:14 PM 50.0 °F - 41.0 °F 71% 30.11 in 10.0 mi SW 10.4 mph - N/A   Scattered Clouds
2:56 PM 53.1 °F - 39.0 °F 59% 30.10 in 10.0 mi SW 10.4 mph 17.3 mph N/A   Clear
3:56 PM 54.0 °F - 37.9 °F 55% 30.10 in 10.0 mi Variable 6.9 mph 18.4 mph N/A   Clear
4:56 PM 54.0 °F - 37.0 °F 53% 30.11 in 10.0 mi WSW 10.4 mph 16.1 mph N/A   Clear
5:56 PM 53.1 °F - 37.9 °F 57% 30.10 in 10.0 mi SSW 9.2 mph - N/A   Clear
6:56 PM 48.9 °F - 37.9 °F 66% 30.11 in 10.0 mi South 3.5 mph - N/A   Clear
7:56 PM 44.1 °F 42.5 °F 39.9 °F 85% 30.14 in 10.0 mi SSW 3.5 mph - N/A   Clear
8:56 PM 42.1 °F - 39.0 °F 89% 30.14 in 10.0 mi Calm Calm - N/A   Clear
9:56 PM 39.9 °F 37.8 °F 37.9 °F 93% 30.16 in 10.0 mi SW 3.5 mph - N/A   Clear
11:56 PM 37.9 °F 34.4 °F 37.0 °F 97% 30.15 in 10.0 mi SSW 4.6 mph - N/A   Clear